Location: Newark
(31.5350°N, 35.0986°E)
Time: 05:44:30
(UTC+00:00)

Transit 4A - Pass Details

Date: 20 October 2019
Orbit: 868 x 976 km, 66.8° (Epoch: 16 November)

Event Time Altitude Azimuth Distance (km) Brightness Sun altitude
Rises 11:21:30 0° 339° (NNW) 3,527 10.7 39.6°
Reaches altitude 10° 11:24:05 10° 343° (NNW) 2,568 10.0 39.3°
Maximum altitude 11:29:55 57° 62° (ENE) 1,027 8.3 38.5°
Drops below altitude 10° 11:35:36 10° 141° (SE) 2,509 10.4 37.7°
Sets 11:38:06 0° 145° (SE) 3,439 11.0 37.3°
